Meteopurmerend
purmerend
Purmerend - Baaienwijk



My webcam  My webcam


Onweer radar Meer informatie blitzortung!


Regen radar Meer informatie rain snow radar


Bezoek onze andere website:

CandyAppleRed WebdesignWebdesign Purmerend Candy Apple Red

MeteopurmerendBlog

Template documentation
and downloads



Wind van: 01-12-2021 09:00 tot: 16:00 waarschuwing voor: Wind niveau: Geel info button
Kans op zware windstoten tot 80-90 km/uur, verder landinwaarts tot 70-80 km/uur.Kans op windstoten.Verkeer en buitenactiviteiten kunnen hinder ondervinden.Volg weerberichten en waarschuwingen.

15 daagse weersverwachting Viborg (DK)

  • Overzicht
  • Per uur
  • 15 dagen
  • Extra
  • Vergelijk
  • Kaarten
  • Dagkaart
  • Meer »
  • Info
  • Statistieken
  • Directe link
    Temp 6h Neerslag Wind  
 08:35     15:50    Daglengte: 7:15 Vandaag
13:00
31.7 mm
11
warningclass
19:00
-0°
45.7 mm
12
warningclass
 08:37     15:49    Daglengte: 7:12 Morgen
01:00
-1°
21.1 mm
10
warningclass
07:00
-1°
 
5
13:00
 
4
19:00
-1°
 
4
 08:38     15:48    Daglengte: 7:10 Vrijdag 03 Dec
01:00
6.9 mm
5
warningclass
07:00
32.8 mm
3
warningclass
13:00
46.4 mm
3
warningclass
19:00
56.3 mm
5
 08:40     15:47    Daglengte: 7:07 Zaterdag 04 Dec
01:00
23.1 mm
4
07:00
 
3
Locatie info
Region: Midtjylland
Latitude: 56.4529°N
Longitude: 9.4058°E
50 masl
Postcode: 8800
Temp/Neerslag /Baro Onweer/DauwpuntSneeuw
    Temp Baro 1h Neerslag Dauwpunt Wind UV BewolkingSneeuw  
 08:35     15:50    Daglengte: 7:15 Vandaag
10:00
Voelt als: -6.5°
983.2 hPa 11.4 mm
48%
-0.1°
10
Windvlaag: 3.8 m/s
86%11 cm warningclass
11:00
Voelt als: -6.5°
981.5 hPa 6.2 mm
82%
-0.3°
10
Windvlaag: 4.2 m/s
86%13 cm warningclass
12:00
Voelt als: -6.6°
979.7 hPa 7.0 mm
82%
-0.4°
10
Windvlaag: 3.4 m/s
86%14 cm warningclass
13:00
Voelt als: -6.7°
978.4 hPa 7.0 mm
82%
-0.3°
11
Windvlaag: 1.4 m/s
86%16 cm warningclass
14:00
Voelt als: -6.8°
977.4 hPa 6.9 mm
82%
-0.4°
11
Windvlaag: 1.1 m/s
86%17 cm warningclass
15:00
Voelt als: -7.0°
976.7 hPa 8.0 mm
82%
-0.5°
12
Windvlaag: -0.6 m/s
86%17 cm warningclass
16:00
Voelt als: -7.3°
976.7 hPa 8.2 mm
82%
-1.1°
13
Windvlaag: -6 m/s
86%18 cm warningclass
17:00
Voelt als: -7.7°
977.3 hPa 7.5 mm
82%
-1.9°
13
Windvlaag: -8.9 m/s
84%19 cm warningclass
18:00
-0°
Voelt als: -7.9°
978.2 hPa 7.7 mm
82%
-2.2°
13
Windvlaag: -9.9 m/s
80%20 cm warningclass
19:00
-0°
Voelt als: -8.0°
979.6 hPa 7.4 mm
82%
-2.3°
12
Windvlaag: -10 m/s
86%20 cm warningclass
20:00
-1°
Voelt als: -8.7°
980.7 hPa 7.2 mm
82%
-2.9°
12
Windvlaag: -10.1 m/s
86%20 cm warningclass
21:00
-1°
Voelt als: -9.1°
981.9 hPa 7.0 mm
82%
-3.5°
12
Windvlaag: -10.8 m/s
85%20 cm warningclass
22:00
-1°
Voelt als: -9.2°
983.1 hPa 6.9 mm
82%
-3.8°
11
Windvlaag: -11.1 m/s
84%21 cm warningclass
23:00
-2°
Voelt als: -9.4°
984.3 hPa
82%
-4.3°
11
Windvlaag: -11.1 m/s
85%21 cm
 08:37     15:49    Daglengte: 7:12 Morgen
00:00
-1°
Voelt als: -9.2°
985.4 hPa
82%
-4.7°
11
Windvlaag: -11.3 m/s
83%21 cm
01:00
-1°
Voelt als: -8.7°
986.5 hPa
79%
-4.7°
10
Windvlaag: -10.9 m/s
79%21 cm
02:00
-1°
Voelt als: -7.6°
987.5 hPa
67%
-4.3°
8
Windvlaag: -8.5 m/s
74%20 cm
03:00
-1°
Voelt als: -7.2°
988.6 hPa
16%
-4.0°
8
Windvlaag: -7 m/s
64%20 cm
04:00
-1°
Voelt als: -7.1°
989.4 hPa
14%
-4.7°
6
Windvlaag: -6.7 m/s
67%20 cm
05:00
-1°
Voelt als: -7.0°
990.1 hPa
14%
-5.4°
6
Windvlaag: -5.2 m/s
73%20 cm
06:00
-1°
Voelt als: -6.8°
991.0 hPa
14%
-4.8°
5
Windvlaag: -4.4 m/s
78%20 cm
07:00
-1°
Voelt als: -6.7°
992.0 hPa
14%
-4.4°
5
Windvlaag: -4.2 m/s
80%20 cm
08:00
-1°
Voelt als: -6.2°
993.0 hPa
14%
-4.6°
5
Windvlaag: -4 m/s
71%20 cm
09:00
-1°
Voelt als: -5.9°
994.0 hPa
14%
-4.6°
4
Windvlaag: -3 m/s
78%20 cm
10:00
-1°
Voelt als: -5.8°
995.0 hPa
14%
-4.5°
4
Windvlaag: -1.8 m/s
61%20 cm
11:00
-1°
Voelt als: -5.2°
995.6 hPa
14%
-4.9°
4
Windvlaag: -0.4 m/s
11%20 cm
12:00
-0°
Voelt als: -4.4°
996.0 hPa
14%
-4.1°
4
Windvlaag: -0.5 m/s
10%20 cm
13:00
Voelt als: -4.1°
996.3 hPa
14%
-3.1°
4
Windvlaag: -1.6 m/s
0%20 cm
14:00
-0°
Voelt als: -4.3°
996.7 hPa
14%
-3.6°
4
Windvlaag: -1.4 m/s
0%20 cm
15:00
-1°
Voelt als: -5.5°
997.0 hPa
14%
-4.7°
4
Windvlaag: -0.3 m/s
0%20 cm
16:00
-3°
Voelt als: -6.9°
997.2 hPa
14%
-5.8°
3
Windvlaag: 1.3 m/s
0%20 cm
17:00
-3°
Voelt als: -7.8°
997.0 hPa
14%
-6.2°
4
Windvlaag: 5.5 m/s
0%20 cm
18:00
-2°
Voelt als: -7.2°
997.1 hPa
14%
-5.6°
4
Windvlaag: 5.7 m/s
2%20 cm
19:00
-1°
Voelt als: -5.9°
997.0 hPa
14%
-4.2°
4
Windvlaag: 5 m/s
13%20 cm
20:00
-1°
Voelt als: -5.6°
997.0 hPa
14%
-2.8°
4
Windvlaag: 5.2 m/s
18%20 cm
21:00
-1°
Voelt als: -5.0°
997.0 hPa
14%
-2.4°
4
Windvlaag: 4.2 m/s
59%20 cm
22:00
-1°
Voelt als: -4.9°
996.8 hPa
14%
-2.6°
4
Windvlaag: 4.5 m/s
43%20 cm
23:00
-0°
Voelt als: -4.4°
996.7 hPa
14%
-2.6°
4
Windvlaag: 4.4 m/s
71%20 cm
 08:38     15:48    Daglengte: 7:10 Vrijdag 03 Dec
00:00
Voelt als: -4.4°
996.7 hPa
21%
-2.4°
5
Windvlaag: 4.9 m/s
76%20 cm
01:00
Voelt als: -4.2°
996.8 hPa 6.9 mm
74%
-2.6°
5
Windvlaag: 5.6 m/s
77%20 cm warningclass
02:00
Voelt als: -3.8°
996.7 hPa 7.1 mm
70%
-2.2°
6
Windvlaag: 3.1 m/s
63%20 cm warningclass
03:00
Voelt als: -2.7°
996.8 hPa 7.1 mm
69%
-0.8°
7
Windvlaag: 0.4 m/s
77%20 cm
04:00
Voelt als: -4.1°
997.1 hPa 7.1 mm
92%
0.7°
7
Windvlaag: 0.4 m/s
99%20 cm
05:00
Voelt als: -3.1°
997.3 hPa 11.5 mm
89%
0.3°
5
Windvlaag: -1 m/s
92%20 cm
06:00
Voelt als: -3.0°
997.4 hPa
85%
0.6°
4
Windvlaag: -0.4 m/s
93%20 cm
07:00
Voelt als: -2.6°
997.5 hPa
44%
-0.1°
3
Windvlaag: -0.2 m/s
85%20 cm
08:00
Voelt als: -3.2°
997.8 hPa
22%
-0.6°
3
Windvlaag: 0.5 m/s
82%20 cm
09:00
-1°
Voelt als: -4.0°
998.1 hPa 11.4 mm
92%
-1.9°
3
Windvlaag: 2.1 m/s
83%20 cm warningclass
10:00
-1°
Voelt als: -4.1°
998.2 hPa 11.7 mm
100%
-1.2°
3
Windvlaag: 2 m/s
85%20 cm warningclass
11:00
-0°
Voelt als: -3.4°
998.1 hPa
100%
-1.5°
3
Windvlaag: 2.9 m/s
75%20 cm
12:00
Voelt als: -2.5°
997.7 hPa 11.6 mm
100%
-0.8°
2
Windvlaag: 2.9 m/s
68%20 cm warningclass
13:00
Voelt als: -2.6°
997.3 hPa 11.6 mm
100%
-1.1°
3
Windvlaag: 3.3 m/s
81%20 cm warningclass
14:00
Voelt als: -2.7°
996.6 hPa 7.0 mm
100%
-0.9°
3
Windvlaag: 3.6 m/s
84%20 cm warningclass
15:00
Voelt als: -2.7°
996.3 hPa 7.2 mm
100%
-0.5°
3
Windvlaag: 4.1 m/s
87%20 cm warningclass
16:00
Voelt als: -3.7°
996.1 hPa 11.7 mm
100%
-0.8°
4
Windvlaag: 3.3 m/s
99%20 cm warningclass
17:00
Voelt als: -3.8°
995.7 hPa 11.8 mm
100%
-0.8°
4
Windvlaag: 5.8 m/s
95%20 cm warningclass
18:00
Voelt als: -3.4°
995.4 hPa 7.1 mm
100%
-0.0°
4
Windvlaag: 5.6 m/s
94%20 cm warningclass
19:00
Voelt als: -3.2°
995.0 hPa 11.6 mm
32%
0.2°
5
Windvlaag: 6.3 m/s
77%20 cm
20:00
Voelt als: -3.0°
994.5 hPa 11.7 mm
22%
1.1°
5
Windvlaag: 6.5 m/s
86%20 cm
21:00
Voelt als: -2.8°
994.5 hPa 11.5 mm
22%
1.3°
6
Windvlaag: 8.3 m/s
91%20 cm
22:00
Voelt als: -2.2°
994.3 hPa
21%
1.0°
4
Windvlaag: 7.8 m/s
90%20 cm
23:00
Voelt als: -1.7°
994.1 hPa
21%
1.1°
4
Windvlaag: 6.8 m/s
81%20 cm
 08:40     15:47    Daglengte: 7:07 Zaterdag 04 Dec
00:00
Voelt als: -1.9°
993.6 hPa
21%
0.5°
4
Windvlaag: 5.5 m/s
80%20 cm
01:00
Voelt als: -2.5°
993.3 hPa
21%
0.7°
4
Windvlaag: 4.9 m/s
85%20 cm
02:00
Voelt als: -1.2°
992.2 hPa
22%
2.2°
3
Windvlaag: 10.8 m/s
52%20 cm
03:00
Voelt als: -1.3°
992.2 hPa
22%
2.1°
3
Windvlaag: 10.9 m/s
20%20 cm
04:00
Voelt als: -1.4°
992.0 hPa
29%
2.0°
3
Windvlaag: 12.2 m/s
29%19 cm
05:00
Voelt als: -1.3°
991.7 hPa
23%
2.0°
3
Windvlaag: 12.9 m/s
57%19 cm
06:00
Voelt als: -1.6°
991.4 hPa
21%
1.8°
3
Windvlaag: 13.9 m/s
47%19 cm
07:00
Voelt als: -1.5°
991.5 hPa
23%
1.8°
3
Windvlaag: 13.8 m/s
56%20 cm
08:00
Voelt als: -5.3°
989.2 hPa 36.8 mm
100%
1.1°
9
Windvlaag: 14.3 m/s
100%20 cm warningclass
09:00
Voelt als: -5.8°
988.9 hPa 37.2 mm
100%
0.9°
10
Windvlaag: 14.6 m/s
100%20 cm warningclass
Temp/Neerslag /Baro Onweer/DauwpuntSneeuw
    Temp Baro Neerslag Dauwpunt Wind BewolkingSneeuw  
 08:35     15:50    Daglengte: 7:15 Vandaag
10:00
Voelt als: -6.5°
983.2 hPa 11.4 mm -0.1°
10
86%11 cm warningclass
13:00
Voelt als: -6.7°
978.4 hPa 20.3 mm -0.3°
11
86%16 cm warningclass
16:00
Voelt als: -7.3°
976.7 hPa 23.2 mm -1.1°
13
86%18 cm warningclass
19:00
-0°
Voelt als: -8.0°
979.6 hPa 22.5 mm -2.3°
12
86%20 cm warningclass
22:00
-1°
Voelt als: -9.2°
983.1 hPa 21.1 mm -3.8°
11
84%21 cm warningclass
 08:37     15:49    Daglengte: 7:12 Morgen
01:00
-1°
Voelt als: -8.7°
986.5 hPa   -4.7°
10
79%21 cm
04:00
-1°
Voelt als: -7.1°
989.4 hPa   -4.7°
6
67%20 cm
07:00
-1°
Voelt als: -6.7°
992.0 hPa   -4.4°
5
80%20 cm
10:00
-1°
Voelt als: -5.8°
995.0 hPa   -4.5°
4
61%20 cm
13:00
Voelt als: -4.1°
996.3 hPa   -3.1°
4
0%20 cm
16:00
-3°
Voelt als: -6.9°
997.2 hPa   -5.8°
3
0%20 cm
19:00
-1°
Voelt als: -5.9°
997.0 hPa   -4.2°
4
13%20 cm
22:00
-1°
Voelt als: -4.9°
996.8 hPa   -2.6°
4
43%20 cm
 08:38     15:48    Daglengte: 7:10 Vrijdag 03 Dec
01:00
Voelt als: -4.2°
996.8 hPa 6.9 mm -2.6°
5
77%20 cm warningclass
04:00
Voelt als: -4.1°
997.1 hPa 21.2 mm 0.7°
7
99%20 cm
07:00
Voelt als: -2.6°
997.5 hPa 11.5 mm -0.1°
3
85%20 cm warningclass
10:00
-1°
Voelt als: -4.1°
998.2 hPa 23.2 mm -1.2°
3
85%20 cm warningclass
13:00
Voelt als: -2.6°
997.3 hPa 23.2 mm -1.1°
3
81%20 cm warningclass
16:00
Voelt als: -3.7°
996.1 hPa 25.9 mm -0.8°
4
99%20 cm warningclass
19:00
Voelt als: -3.2°
995.0 hPa 30.4 mm 0.2°
5
77%20 cm
22:00
Voelt als: -2.2°
994.3 hPa 23.1 mm 1.0°
4
90%20 cm
 08:40     15:47    Daglengte: 7:07 Zaterdag 04 Dec
01:00
Voelt als: -2.5°
993.3 hPa   0.7°
4
85%20 cm
04:00
Voelt als: -1.4°
992.0 hPa   2.0°
3
29%19 cm
07:00
Voelt als: -1.5°
991.5 hPa   1.8°
3
56%20 cm
10:00
Voelt als: -6.0°
988.9 hPa 111.4 mm 0.7°
10
100%19 cm warningclass
13:00
Voelt als: -6.7°
988.1 hPa 121.2 mm 0.3°
10
100%21 cm warningclass
16:00
Voelt als: -4.2°
991.8 hPa 43.3 mm 0.7°
5
1% warningclass
19:00
Voelt als: -4.1°
992.8 hPa 44.8 mm 0.5°
5
1% warningclass
22:00
Voelt als: -4.0°
994.0 hPa 47.7 mm 0.6°
5
1% warningclass
 08:41     15:47    Daglengte: 7:06 Zondag 05 Dec
01:00
Voelt als: -3.9°
995.2 hPa 49.2 mm 0.6°
5
1% warningclass
04:00
Voelt als: -3.6°
996.6 hPa 51.5 mm 0.7°
4
1% warningclass
07:00
Voelt als: -3.8°
998.3 hPa 53.8 mm 0.8°
5
1% warningclass
10:00
Voelt als: -3.6°
1000.2 hPa 54.5 mm 1.0°
5
1% warningclass
13:00
Voelt als: -3.9°
1001.6 hPa 55.2 mm 1.0°
5
1% warningclass
16:00
Voelt als: -4.1°
1003.2 hPa 56.2 mm 0.7°
5
1% warningclass
19:00
Voelt als: -2.4°
1005.6 hPa 57.4 mm 0.4°
2
1% warningclass
22:00
Voelt als: -2.0°
1008.0 hPa 57.8 mm 0.4°
2
1% warningclass
 08:43     15:46    Daglengte: 7:03 Maandag 06 Dec
01:00
Voelt als: -3.5°
1009.9 hPa 57.8 mm 0.6°
4
1% warningclass
04:00
-1°
Voelt als: -5.0°
1011.8 hPa 57.9 mm -2.1°
3
1% warningclass
07:00
-0°
Voelt als: -3.3°
1013.4 hPa 57.9 mm -0.6°
3
1% warningclass
10:00
Voelt als: -2.4°
1015.0 hPa 57.9 mm 0.4°
3
1% warningclass
13:00
Voelt als: -2.3°
1015.1 hPa 57.9 mm 0.8°
3
1% warningclass
16:00
-0°
Voelt als: -4.6°
1015.4 hPa 57.9 mm -1.4°
4
1% warningclass
19:00
Voelt als: -4.4°
1015.8 hPa 58.3 mm 0.2°
5
1% warningclass
22:00
-0°
Voelt als: -4.5°
1017.1 hPa 58.3 mm -1.0°
4
1% warningclass
 08:44     15:46    Daglengte: 7:02 Dinsdag 07 Dec
01:00
-0°
Voelt als: -4.3°
1017.5 hPa 58.3 mm -0.5°
3
1% warningclass
04:00
Voelt als: -3.0°
1017.5 hPa 58.3 mm 0.6°
3
1% warningclass
07:00
Voelt als: -3.2°
1017.9 hPa 58.3 mm 0.8°
4
1% warningclass
10:00
Voelt als: -3.1°
1018.5 hPa 58.4 mm 0.8°
4
1% warningclass
13:00
Voelt als: -2.9°
1018.5 hPa 58.4 mm 0.7°
4
1% warningclass
16:00
Voelt als: -3.7°
1017.7 hPa 58.4 mm -0.2°
5
1% warningclass
19:00
Voelt als: -2.8°
1017.9 hPa 58.4 mm 1.8°
5
1%
22:00
Voelt als: -3.3°
1018.1 hPa 58.4 mm 0.8°
6
1%
 08:45     15:45    Daglengte: 7:00 Woensdag 08 Dec
01:00
Voelt als: -4.0°
1017.9 hPa 58.4 mm 0.2°
6
1%
04:00
Voelt als: -4.3°
1017.6 hPa 58.4 mm 0.2°
8
1%
07:00
Voelt als: -4.3°
1017.5 hPa 116.7 mm -0.5°
7
1%
13:00
Voelt als: -3.7°
1018.7 hPa 116.7 mm 0.2°
7
1%
19:00
Voelt als: -4.0°
1021.2 hPa 116.7 mm -1.3°
7
1%
 08:47     15:45    Daglengte: 6:58 Donderdag 09 Dec
01:00
Voelt als: -4.5°
1022.6 hPa 116.7 mm -1.5°
5
1% warningclass
07:00
-0°
Voelt als: -4.9°
1023.1 hPa 116.7 mm -1.6°
4
1% warningclass
13:00
Voelt als: -4.1°
1022.9 hPa 116.7 mm -1.6°
6
0% warningclass
19:00
-1°
Voelt als: -5.9°
1023.0 hPa 116.7 mm -3.6°
5
0% warningclass
 08:48     15:44    Daglengte: 6:56 Vrijdag 10 Dec
01:00
-1°
Voelt als: -6.0°
1022.5 hPa 116.7 mm -3.5°
5
0% warningclass
07:00
-1°
Voelt als: -5.9°
1023.1 hPa 116.7 mm -3.2°
5
0% warningclass
13:00
Voelt als: -4.0°
1024.7 hPa 116.7 mm -2.1°
5
1% warningclass
19:00
-1°
Voelt als: -5.2°
1027.4 hPa 116.7 mm -3.0°
3
0% warningclass
 08:49     15:44    Daglengte: 6:55 Zaterdag 11 Dec
01:00
-2°
Voelt als: -4.8°
1030.8 hPa 116.7 mm -2.9°
2
0% warningclass
07:00
Voelt als: -0.4°
1007.7 hPa 0.8 mm 1.2°
4
80%
13:00
Voelt als: 1.0°
1007.3 hPa 0.5 mm 1.7°
4
83%
19:00
Voelt als: 0.5°
1007.3 hPa 0.4 mm 1.5°
4
77%
 08:50     15:44    Daglengte: 6:54 Zondag 12 Dec
01:00
Voelt als: 0.1°
1008.0 hPa 0.5 mm 1.5°
4
69%
07:00
Voelt als: 0.5°
1007.2 hPa 0.6 mm 2.1°
5
86%
13:00
Voelt als: 1.9°
1008.2 hPa 0.4 mm 2.3°
4
82%
19:00
Voelt als: 1.0°
1009.3 hPa 0.8 mm 1.8°
4
81%
 08:51     15:44    Daglengte: 6:53 Maandag 13 Dec
01:00
Voelt als: 0.5°
1010.3 hPa 0.4 mm 1.5°
4
79%
07:00
Voelt als: 0.5°
1010.5 hPa 0.4 mm 1.6°
4
74%
13:00
Voelt als: 1.9°
1011.5 hPa 0.5 mm 2.5°
5
77%
19:00
Voelt als: 1.1°
1012.8 hPa 0.4 mm 2.2°
5
74%
 08:52     15:44    Daglengte: 6:52 Dinsdag 14 Dec
01:00
Voelt als: 1.2°
1014.0 hPa 0.3 mm 2.7°
5
64%
07:00
Voelt als: 1.4°
1014.6 hPa 0.3 mm 2.6°
4
60%
13:00
Voelt als: 2.9°
1016.1 hPa 0.2 mm 2.9°
4
63%
19:00
Voelt als: 1.5°
1015.9 hPa 0.6 mm 2.8°
4
68%
 08:53     15:44    Daglengte: 6:51 Woensdag 15 Dec
01:00
Voelt als: 1.6°
1015.6 hPa 0.9 mm 3.0°
4
72%
07:00
Voelt als: 1.2°
1014.7 hPa 0.6 mm 2.6°
4
71%
13:00
Voelt als: 3.1°
1014.3 hPa 0.6 mm 3.7°
4
72%
19:00
Voelt als: 2.4°
1013.7 hPa 1.4 mm 3.2°
4
75%
 08:54     15:44    Daglengte: 6:50 Donderdag 16 Dec
01:00
Voelt als: 2.1°
1013.2 hPa 1.4 mm 3.1°
4
70%
07:00
Voelt als: 1.7°
1013.5 hPa 0.7 mm 2.5°
5
70%
  CAPE Lifted Index Hail Supercell Tornado SRH 3km CL BTM PRES CL TOP PRES Swiss DWD icon SMHI TS
 08:35     15:50    Daglengte: 7:15 Vandaag
10:00 0 J/kg 7.4 K 0 % 0 % 0 % 0 m²/s² 0 0 7.73 73
11:00 0 J/kg 4.8 K 0 % 0 % 0 % 0 m²/s² 0 0 5.07 73
12:00 0 J/kg 3.2 K 0 % 0 % 0 % 0 m²/s² 0 0 3.47 73
13:00 0 J/kg 2.7 K 0 % 0 % 0 % 0 m²/s² 0 0 3.18 73
14:00 0 J/kg 1.9 K 0 % 0 % 0 % 0 m²/s² 0 0 2.56 73
15:00 1 J/kg 2.8 K 0 % 0 % 0 % 0 m²/s² 0 0 3.55 73
16:00 2 J/kg 3.2 K 0 % 0 % 0 % 0 m²/s² 0 0 4.01 73
17:00 2 J/kg 4.3 K 0 % 0 % 0 % 0 m²/s² 0 0 4.66 73
18:00 3 J/kg 7.1 K 0 % 0 % 0 % 0 m²/s² 0 0 7.49 73
19:00 2 J/kg 9.4 K 0 % 0 % 0 % 0 m²/s² 0 0 9.97 73
20:00 2 J/kg 10.7 K 0 % 0 % 0 % 0 m²/s² 0 0 11.18 71
21:00 0 J/kg 11.0 K 0 % 0 % 0 % 0 m²/s² 0 0 11.51 71
22:00 0 J/kg 11.5 K 0 % 0 % 0 % 0 m²/s² 0 0 12.1 71
23:00 0 J/kg 11.3 K 0 % 0 % 0 % 0 m²/s² 0 0 11.93 71
 08:37     15:49    Daglengte: 7:12 Morgen
00:00 0 J/kg 10.9 K 0 % 0 % 0 % 0 m²/s² 0 0 11.5 71
01:00 0 J/kg 10.8 K 0 % 0 % 0 % 0 m²/s² 0 0 11.4 3
02:00 0 J/kg 11.6 K 0 % 0 % 0 % 0 m²/s² 0 0 12.29 3
03:00 0 J/kg 10.0 K 0 % 0 % 0 % 0 m²/s² 0 0 10.69 3
04:00 0 J/kg 8.8 K 0 % 0 % 0 % 0 m²/s² 0 0 9.49 3
05:00 8 J/kg 7.7 K 0 % 0 % 0 % 0 m²/s² 0 0 8.42 3
06:00 20 J/kg 6.5 K 0 % 0 % 0 % 0 m²/s² 0 0 7.25 3
07:00 0 J/kg 6.0 K 0 % 0 % 0 % 0 m²/s² 0 0 6.84 3
08:00 0 J/kg 5.7 K 0 % 0 % 0 % 0 m²/s² 0 0 8.31 3
09:00 9 J/kg 4.7 K 0 % 0 % 0 % 0 m²/s² 0 0 8.84 3
10:00 1 J/kg 4.7 K 0 % 0 % 0 % 0 m²/s² 0 0 10.49 3
11:00 0 J/kg 4.8 K 0 % 0 % 0 % 0 m²/s² 0 0 9.93 1
12:00 0 J/kg 4.2 K 0 % 0 % 0 % 0 m²/s² 0 0 7.56 0
13:00 0 J/kg 3.6 K 0 % 0 % 0 % 0 m²/s² 0 0 7.44 0
14:00 0 J/kg 4.2 K 0 % 0 % 0 % 0 m²/s² 0 0 7.23 0
15:00 0 J/kg 4.2 K 0 % 0 % 0 % 0 m²/s² 0 0 7.23 0
16:00 0 J/kg 4.5 K 0 % 0 % 0 % 0 m²/s² 0 0 7.86 0
17:00 0 J/kg 4.3 K 0 % 0 % 0 % 0 m²/s² 0 0 7.93 1
18:00 0 J/kg 3.3 K 0 % 0 % 0 % 0 m²/s² 0 0 4.62 0
19:00 0 J/kg 2.3 K 0 % 0 % 0 % 0 m²/s² 0 0 2.9 1
20:00 0 J/kg 1.4 K 0 % 0 % 0 % 0 m²/s² 0 0 2.45 2
21:00 4 J/kg 5.2 K 0 % 0 % 0 % 0 m²/s² 0 0 6.43 3
22:00 1 J/kg 6.7 K 0 % 0 % 0 % 0 m²/s² 0 0 7.45 3
23:00 0 J/kg 8.0 K 0 % 0 % 0 % 0 m²/s² 0 0 10.43 3
 08:38     15:48    Daglengte: 7:10 Vrijdag 03 Dec
00:00 0 J/kg 9.1 K 0 % 0 % 0 % 0 m²/s² 0 0 11.47 3
01:00 0 J/kg 10.2 K 0 % 0 % 0 % 0 m²/s² 0 0 12.72 85
02:00 0 J/kg 10.6 K 0 % 0 % 0 % 0 m²/s² 0 0 13.27 3
03:00 0 J/kg 9.6 K 0 % 0 % 0 % 0 m²/s² 0 0 12.06 80
04:00 0 J/kg 8.7 K 0 % 0 % 0 % 0 m²/s² 0 0 11.22 80
05:00 0 J/kg 9.6 K 0 % 0 % 0 % 0 m²/s² 0 0 11.55 3
06:00 0 J/kg 10.3 K 0 % 0 % 0 % 0 m²/s² 0 0 12.07 3
07:00 0 J/kg 10.2 K 0 % 0 % 0 % 0 m²/s² 0 0 11.55 3
08:00 0 J/kg 10.0 K 0 % 0 % 0 % 0 m²/s² 0 0 11.59 3
09:00 0 J/kg 10.0 K 0 % 0 % 0 % 0 m²/s² 0 0 11.44 85
10:00 0 J/kg 10.3 K 0 % 0 % 0 % 0 m²/s² 0 0 11.59 85
11:00 0 J/kg 10.2 K 0 % 0 % 0 % 0 m²/s² 0 0 11.64 61
12:00 0 J/kg 10.4 K 0 % 0 % 0 % 0 m²/s² 0 0 11.12 61
13:00 0 J/kg 9.4 K 0 % 0 % 0 % 0 m²/s² 0 0 10 53
14:00 0 J/kg 8.3 K 0 % 0 % 0 % 0 m²/s² 0 0 9.14 61
15:00 0 J/kg 7.8 K 0 % 0 % 0 % 0 m²/s² 0 0 8.58 61
16:00 0 J/kg 7.3 K 0 % 0 % 0 % 0 m²/s² 0 0 7.9 61
17:00 0 J/kg 7.4 K 0 % 0 % 0 % 0 m²/s² 0 0 8.06 80
18:00 0 J/kg 7.3 K 0 % 0 % 0 % 0 m²/s² 0 0 7.84 80
19:00 0 J/kg 7.7 K 0 % 0 % 0 % 0 m²/s² 0 0 8.51 2
20:00 0 J/kg 7.8 K 0 % 0 % 0 % 0 m²/s² 0 0 8.7 2
21:00 0 J/kg 7.6 K 0 % 0 % 0 % 0 m²/s² 0 0 8.68 2
22:00 0 J/kg 7.0 K 0 % 0 % 0 % 0 m²/s² 0 0 8.77 2
23:00 0 J/kg 6.7 K 0 % 0 % 0 % 0 m²/s² 0 0 8.77 2
 08:40     15:47    Daglengte: 7:07 Zaterdag 04 Dec
00:00 0 J/kg 7.1 K 0 % 0 % 0 % 0 m²/s² 0 0 8.75 2
01:00 0 J/kg 6.8 K 0 % 0 % 0 % 0 m²/s² 0 0 7.43 2
02:00 0 J/kg 6.2 K 0 % 0 % 0 % 0 m²/s² 0 0 6.74 2
03:00 1 J/kg 5.5 K 0 % 0 % 0 % 0 m²/s² 0 0 5.95 2
04:00 1 J/kg 4.7 K 0 % 0 % 0 % 0 m²/s² 0 0 5.36 2
05:00 1 J/kg 4.4 K 0 % 0 % 0 % 0 m²/s² 0 0 5.21 2
06:00 1 J/kg 4.4 K 0 % 0 % 0 % 0 m²/s² 0 0 4.82 2
07:00 1 J/kg 3.8 K 0 % 0 % 0 % 0 m²/s² 0 0 4.22 2
08:00 1 J/kg 3.3 K 0 % 0 % 0 % 0 m²/s² 0 0 3.72
09:00 0 J/kg 2.8 K 0 % 0 % 0 % 0 m²/s² 0 0 3.28
Temp Baro Wind Neerslag
  EWN Forecast EWN WRFDA DWD ICON FMI HIRLAM MET Norway GFS
 08:35     15:50    Daglengte: 7:15 Vandaag
10:00 0.4° 983.2 hPa 10.1 m/s 11.4 mm 0.3° 980.2 hPa 13.8 m/s 16.8 mm 0.4° 983.9 hPa 6.9 m/s 10.5 mm 0.7° 983.0 hPa 10.0 m/s 0.0 mm 0.1° 982.5 hPa 11.0 m/s
13:00 0.4° 978.4 hPa 10.7 m/s 20.3 mm 0.2° 975.5 hPa 15.5 m/s 68.5 mm 0.5° 979.4 hPa 7.7 m/s 7.4 mm 0.7° 978.7 hPa 10.2 m/s 0.0 mm 0.3° 978.2 hPa 11.2 m/s
16:00 0.4° 976.7 hPa 12.8 m/s 23.2 mm 0.0° 973.4 hPa 16.2 m/s 85.5 mm 0.4° 978.3 hPa 9.8 m/s 7.5 mm 0.9° 977.0 hPa 12.8 m/s 0.0 mm 0.1° 977.1 hPa 12.5 m/s
19:00 -0.3° 979.6 hPa 11.9 m/s 22.5 mm -1.4° 976.1 hPa 18.1 m/s 97.0 mm -0.9° 981.6 hPa 10.2 m/s 5.9 mm -0.1° 979.7 hPa 11.0 m/s 0.0 mm -1.0° 980.3 hPa 11.2 m/s
22:00 -1.4° 983.1 hPa 11.2 m/s 21.1 mm -2.2° 979.9 hPa 16.3 m/s 100.6 mm -2.3° 985.2 hPa 9.4 m/s 1.2 mm -1.1° 983.0 hPa 10.8 m/s 0.0 mm
 08:37     15:49    Daglengte: 7:12 Morgen
01:00 -1.3° 986.5 hPa 9.8 m/s 0.0 mm -1.0° 982.3 hPa 13.0 m/s 101.2 mm -2.3° 989.1 hPa 6.1 m/s 0.2 mm 0.2° 985.1 hPa 10.4 m/s 0.0 mm -1.0° 987.8 hPa 8.0 m/s
04:00 -1.1° 989.4 hPa 6.5 m/s 0.0 mm -0.8° 984.6 hPa 8.4 m/s 101.2 mm -2.5° 992.4 hPa 3.2 m/s 0.0 mm 0.4° 988.0 hPa 7.5 m/s 0.0 mm -2.0° 990.4 hPa 4.0 m/s
07:00 -1.3° 992.0 hPa 5.2 m/s 0.0 mm -0.6° 987.3 hPa 7.7 m/s 101.2 mm -1.9° 994.5 hPa 2.4 m/s 0.0 mm 0.5° 990.2 hPa 5.5 m/s 0.0 mm -2.4° 992.6 hPa 3.1 m/s
10:00 -1.3° 995.0 hPa 3.9 m/s 0.0 mm -0.5° 990.2 hPa 8.0 m/s 101.2 mm -2.5° 997.7 hPa 1.6 m/s 0.0 mm 1.1° 992.9 hPa 6.1 m/s 0.0 mm -2.2° 995.4 hPa 3.0 m/s
13:00 0.3° 996.3 hPa 4.3 m/s 0.0 mm -1.3° 991.0 hPa 5.7 m/s 101.2 mm 0.2° 998.6 hPa 2.2 m/s 0.0 mm 0.8° 994.5 hPa 4.4 m/s 0.0 mm -1.2° 996.3 hPa 2.8 m/s
16:00 -2.6° 997.2 hPa 3.3 m/s 0.0 mm -5.1° 991.9 hPa 5.0 m/s 101.2 mm -2.7° 998.8 hPa 2.2 m/s 0.0 mm -0.5° 995.6 hPa 4.1 m/s 0.0 mm -5.5° 996.8 hPa 3.3 m/s
19:00 -1.4° 997.0 hPa 3.8 m/s 0.0 mm -0.1° 991.3 hPa 6.2 m/s 101.2 mm -1.1° 998.3 hPa 3.4 m/s 0.0 mm -1.0° 996.0 hPa 4.2 m/s 0.0 mm -3.9° 996.8 hPa 3.5 m/s
22:00 -0.8° 996.8 hPa 3.5 m/s 0.0 mm -0.7° 990.6 hPa 6.4 m/s 102.1 mm -0.6° 997.8 hPa 3.0 m/s 0.0 mm 1.5° 995.6 hPa 4.4 m/s 0.0 mm -5.8° 996.9 hPa 2.7 m/s
 08:38     15:48    Daglengte: 7:10 Vrijdag 03 Dec
01:00 0.4° 996.8 hPa 4.8 m/s 6.9 mm -3.5° 990.7 hPa 6.3 m/s 102.1 mm 0.8° 998.0 hPa 3.3 m/s 0.1 mm 3.1° 995.2 hPa 6.6 m/s 0.0 mm -1.4° 997.0 hPa 3.3 m/s
04:00 1.4° 997.1 hPa 7.1 m/s 21.2 mm -1.0° 991.7 hPa 9.6 m/s 102.1 mm 1.3° 998.3 hPa 3.4 m/s 0.9 mm -0.5° 997.6 hPa 4.1 m/s
07:00 0.8° 997.5 hPa 3.1 m/s 11.5 mm -2.5° 994.4 hPa 2.5 m/s 102.1 mm 1.2° 997.9 hPa 2.5 m/s 0.1 mm 1.2° 998.3 hPa 4.7 m/s
10:00 -0.7° 998.2 hPa 2.7 m/s 23.2 mm -4.0° 995.8 hPa 1.2 m/s 102.1 mm 1.2° 998.4 hPa 2.7 m/s 0.7 mm 1.1° 999.5 hPa 2.4 m/s
13:00 0.5° 997.3 hPa 2.7 m/s 23.2 mm -0.8° 996.2 hPa 2.3 m/s 102.1 mm 1.4° 997.1 hPa 3.1 m/s 0.8 mm 0.9° 999.8 hPa 3.2 m/s
16:00 0.4° 996.1 hPa 3.9 m/s 25.9 mm -2.2° 996.4 hPa 4.0 m/s 102.1 mm 0.7° 993.6 hPa 4.2 m/s 0.8 mm 0.4° 999.8 hPa 2.8 m/s
19:00 1.2° 995.0 hPa 4.8 m/s 30.4 mm -0.7° 995.9 hPa 5.2 m/s 102.2 mm 2.3° 991.2 hPa 3.8 m/s 1.2 mm -0.6° 999.5 hPa 2.8 m/s
22:00 1.9° 994.3 hPa 4.3 m/s 23.1 mm 0.1° 995.2 hPa 5.6 m/s 102.3 mm 2.6° 991.9 hPa 3.3 m/s 0.0 mm 0.0° 998.5 hPa 3.6 m/s
 08:40     15:47    Daglengte: 7:07 Zaterdag 04 Dec
01:00 1.3° 993.3 hPa 3.7 m/s 0.0 mm 0.5° 993.4 hPa 6.8 m/s 102.4 mm 2.5° 992.1 hPa 2.8 m/s 0.0 mm 1.5° 995.7 hPa 5.0 m/s
04:00 2.0° 992.0 hPa 3.4 m/s 0.0 mm 1.3° 991.0 hPa 8.7 m/s 102.6 mm 2.2° 992.2 hPa 2.1 m/s 0.0 mm 0.8° 993.4 hPa 7.3 m/s
07:00 1.8° 991.5 hPa 3.2 m/s 0.0 mm 1.0° 989.5 hPa 8.6 m/s 105.4 mm 2.0° 992.1 hPa 1.8 m/s 0.0 mm 0.6° 992.2 hPa 7.4 m/s
10:00 0.7° 988.9 hPa 9.9 m/s 111.4 mm 0.7° 988.9 hPa 9.9 m/s 111.4 mm 0.3° 992.2 hPa 6.0 m/s
13:00 0.3° 988.1 hPa 10.3 m/s 121.2 mm 0.3° 988.1 hPa 10.3 m/s 121.2 mm 0.5° 991.6 hPa 5.8 m/s
16:00 0.7° 991.8 hPa 5.3 m/s 43.3 mm 0.7° 991.8 hPa 5.3 m/s 43.3 mm
19:00 0.5° 992.8 hPa 4.6 m/s 44.8 mm 0.5° 992.8 hPa 4.6 m/s 44.8 mm
22:00 0.6° 994.0 hPa 4.7 m/s 47.7 mm 0.6° 994.0 hPa 4.7 m/s 47.7 mm
 08:41     15:47    Daglengte: 7:06 Zondag 05 Dec
01:00 0.6° 995.2 hPa 4.7 m/s 49.2 mm 0.6° 995.2 hPa 4.7 m/s 49.2 mm
04:00 0.7° 996.6 hPa 4.3 m/s 51.5 mm 0.7° 996.6 hPa 4.3 m/s 51.5 mm
07:00 0.8° 998.3 hPa 4.9 m/s 53.8 mm 0.8° 998.3 hPa 4.9 m/s 53.8 mm
10:00 1.0° 1000.2 hPa 4.8 m/s 54.5 mm 1.0° 1000.2 hPa 4.8 m/s 54.5 mm
13:00 1.0° 1001.6 hPa 5.3 m/s 55.2 mm 1.0° 1001.6 hPa 5.3 m/s 55.2 mm
16:00 0.7° 1003.2 hPa 5.1 m/s 56.2 mm 0.7° 1003.2 hPa 5.1 m/s 56.2 mm
19:00 0.4° 1005.6 hPa 2.4 m/s 57.4 mm 0.4° 1005.6 hPa 2.4 m/s 57.4 mm
22:00 0.4° 1008.0 hPa 2.0 m/s 57.8 mm 0.4° 1008.0 hPa 2.0 m/s 57.8 mm
 08:43     15:46    Daglengte: 7:03 Maandag 06 Dec
01:00 0.6° 1009.9 hPa 3.9 m/s 57.8 mm 0.6° 1009.9 hPa 3.9 m/s 57.8 mm
04:00 -1.4° 1011.8 hPa 2.9 m/s 57.9 mm -1.4° 1011.8 hPa 2.9 m/s 57.9 mm
07:00 -0.2° 1013.4 hPa 2.6 m/s 57.9 mm -0.2° 1013.4 hPa 2.6 m/s 57.9 mm
10:00 0.9° 1015.0 hPa 2.9 m/s 57.9 mm 0.9° 1015.0 hPa 2.9 m/s 57.9 mm
13:00 0.8° 1015.1 hPa 2.8 m/s 57.9 mm 0.8° 1015.1 hPa 2.8 m/s 57.9 mm
16:00 -0.3° 1015.4 hPa 3.8 m/s 57.9 mm -0.3° 1015.4 hPa 3.8 m/s 57.9 mm
19:00 0.4° 1015.8 hPa 4.8 m/s 58.3 mm 0.4° 1015.8 hPa 4.8 m/s 58.3 mm
22:00 -0.3° 1017.1 hPa 3.9 m/s 58.3 mm -0.3° 1017.1 hPa 3.9 m/s 58.3 mm
 08:44     15:46    Daglengte: 7:02 Dinsdag 07 Dec
01:00 -0.4° 1017.5 hPa 3.4 m/s 58.3 mm -0.4° 1017.5 hPa 3.4 m/s 58.3 mm
04:00 0.6° 1017.5 hPa 3.2 m/s 58.3 mm 0.6° 1017.5 hPa 3.2 m/s 58.3 mm
07:00 0.8° 1017.9 hPa 3.9 m/s 58.3 mm 0.8° 1017.9 hPa 3.9 m/s 58.3 mm
10:00 0.8° 1018.5 hPa 3.8 m/s 58.4 mm 0.8° 1018.5 hPa 3.8 m/s 58.4 mm
13:00 1.0° 1018.5 hPa 3.7 m/s 58.4 mm 1.0° 1018.5 hPa 3.7 m/s 58.4 mm
16:00 1.0° 1017.7 hPa 5.1 m/s 58.4 mm 1.0° 1017.7 hPa 5.1 m/s 58.4 mm
19:00 1.8° 1017.9 hPa 5.3 m/s 58.4 mm 1.8° 1017.9 hPa 5.3 m/s 58.4 mm
22:00 1.6° 1018.1 hPa 5.7 m/s 58.4 mm 1.6° 1018.1 hPa 5.7 m/s 58.4 mm
 08:45     15:45    Daglengte: 7:00 Woensdag 08 Dec
01:00 1.2° 1017.9 hPa 6.3 m/s 58.4 mm 1.2° 1017.9 hPa 6.3 m/s 58.4 mm
04:00 1.6° 1017.6 hPa 7.9 m/s 58.4 mm 1.6° 1017.6 hPa 7.9 m/s 58.4 mm
07:00 1.3° 1017.5 hPa 7.2 m/s 58.4 mm 1.3° 1017.5 hPa 7.2 m/s 58.4 mm
13:00 1.8° 1018.7 hPa 7.4 m/s 58.4 mm 1.8° 1018.7 hPa 7.4 m/s 58.4 mm
19:00 1.3° 1021.2 hPa 6.5 m/s 58.4 mm 1.3° 1021.2 hPa 6.5 m/s 58.4 mm
 08:47     15:45    Daglengte: 6:58 Donderdag 09 Dec
01:00 0.3° 1022.6 hPa 4.9 m/s 58.4 mm 0.3° 1022.6 hPa 4.9 m/s 58.4 mm
07:00 -0.4° 1023.1 hPa 4.1 m/s 58.4 mm -0.4° 1023.1 hPa 4.1 m/s 58.4 mm
13:00 1.0° 1022.9 hPa 5.9 m/s 58.4 mm 1.0° 1022.9 hPa 5.9 m/s 58.4 mm
19:00 -0.7° 1023.0 hPa 5.0 m/s 58.4 mm -0.7° 1023.0 hPa 5.0 m/s 58.4 mm
 08:48     15:44    Daglengte: 6:56 Vrijdag 10 Dec
01:00 -0.7° 1022.5 hPa 5.4 m/s 58.4 mm -0.7° 1022.5 hPa 5.4 m/s 58.4 mm
07:00 -0.9° 1023.1 hPa 4.9 m/s 58.4 mm -0.9° 1023.1 hPa 4.9 m/s 58.4 mm
13:00 0.7° 1024.7 hPa 4.8 m/s 58.4 mm 0.7° 1024.7 hPa 4.8 m/s 58.4 mm
19:00 -1.4° 1027.4 hPa 3.0 m/s 58.4 mm -1.4° 1027.4 hPa 3.0 m/s 58.4 mm
 08:49     15:44    Daglengte: 6:55 Zaterdag 11 Dec
01:00 -1.6° 1030.8 hPa 2.4 m/s 58.4 mm -1.6° 1030.8 hPa 2.4 m/s 58.4 mm
07:00 3.2° 1007.7 hPa 4.1 m/s 0.8 mm
13:00 4.4° 1007.3 hPa 4.1 m/s 0.5 mm
19:00 3.8° 1007.3 hPa 3.9 m/s 0.4 mm
 08:50     15:44    Daglengte: 6:54 Zondag 12 Dec
01:00 3.8° 1008.0 hPa 4.5 m/s 0.5 mm
07:00 4.1° 1007.2 hPa 4.5 m/s 0.6 mm
13:00 5.1° 1008.2 hPa 4.2 m/s 0.4 mm
19:00 4.3° 1009.3 hPa 4.1 m/s 0.8 mm
 08:51     15:44    Daglengte: 6:53 Maandag 13 Dec
01:00 4.1° 1010.3 hPa 4.4 m/s 0.4 mm
07:00 4.1° 1010.5 hPa 4.3 m/s 0.4 mm
13:00 5.3° 1011.5 hPa 4.7 m/s 0.5 mm
19:00 4.6° 1012.8 hPa 4.5 m/s 0.4 mm
 08:52     15:44    Daglengte: 6:52 Dinsdag 14 Dec
01:00 4.8° 1014.0 hPa 4.9 m/s 0.3 mm
07:00 4.4° 1014.6 hPa 3.5 m/s 0.3 mm
13:00 5.7° 1016.1 hPa 3.7 m/s 0.2 mm
19:00 4.6° 1015.9 hPa 3.9 m/s 0.6 mm
 08:53     15:44    Daglengte: 6:51 Woensdag 15 Dec
01:00 5.0° 1015.6 hPa 4.4 m/s 0.9 mm
07:00 4.6° 1014.7 hPa 4.3 m/s 0.6 mm
13:00 6.2° 1014.3 hPa 4.5 m/s 0.6 mm
19:00 5.2° 1013.7 hPa 3.6 m/s 1.4 mm
 08:54     15:44    Daglengte: 6:50 Donderdag 16 Dec
01:00 5.3° 1013.2 hPa 4.3 m/s 1.4 mm
07:00 5.2° 1013.5 hPa 4.7 m/s 0.7 mm
FMI Hirlam - 7.5 km EWN WRFDA - 12 km DWD ICON - 7 km GFS - 25 km Basiskaart






























































Updatetijd (Europe/Amsterdam) Resolutie Lengte Stap
FMI Hirlam 06:00, 12:00, 18:00, 00:00 7.5 km 49h 1h
EWN WRFDA 08:45, 14:45, 20:45, 02:45 12 km 73h 1h
DWD ICON 04:45, 10:45, 16:45, 22:45 7 km 75h 1h
GFS 07:30, 13:30, 19:30, 01:30 25 km 237h 3h
30+ mm
25-30 mm
20-25 mm
15-20 mm
10-15 mm
6-10 mm
4-6 mm
2-4 mm
1-2 mm
0.5-1 mm
0.2-0.5 mm
0.1-0.2 mm
30+ mm
25-30 mm
20-25 mm
15-20 mm
10-15 mm
6-10 mm
4-6 mm
2-4 mm
1-2 mm
0.5-1 mm
0.2-0.5 mm
0.1-0.2 mm
Sneeuwval
Natte sneeuw
Hagel
Vorst
30+ mm
25-30 mm
20-25 mm
15-20 mm
10-15 mm
6-10 mm
4-6 mm
2-4 mm
1-2 mm
0.5-1 mm
0.2-0.5 mm
0.1-0.2 mm
Sneeuwval
Natte sneeuw
Hagel
Vorst
Onweer
50 mm
40 mm
30 mm
26 mm
22 mm
18 mm
14 mm
10 mm
9 mm
8 mm
7 mm
6 mm
5 mm
4.5 mm
4 mm
3.5 mm
3 mm
2.5 mm
2 mm
1.5 mm
1 mm
0.8 mm
0.6 mm
0.4 mm
0.2 mm
0.05 mm
35°
30°
25°
20°
15°
10°
-5°
-10°
-15°
-20°
-25°
-30°
-35°
33> m/s
29 m/s
25 m/s
21 m/s
17 m/s
14 m/s
11 m/s
8 m/s
5 m/s
3 m/s
0 m/s
2600 J/kg
2400 J/kg
2200 J/kg
2000 J/kg
1800 J/kg
1600 J/kg
1400 J/kg
1200 J/kg
1000 J/kg
800 J/kg
600 J/kg
400 J/kg
200 J/kg
70 dBZ
65 dBZ
60 dBZ
55 dBZ
50 dBZ
45 dBZ
40 dBZ
35 dBZ
30 dBZ
25 dBZ
20 dBZ
15 dBZ
10 dBZ
5 dBZ
-1 K
-2 K
-3 K
-4 K
-5 K
-6 K
-7 K
-8 K
-9 K
950 m²/s²
900 m²/s²
850 m²/s²
800 m²/s²
750 m²/s²
700 m²/s²
650 m²/s²
600 m²/s²
550 m²/s²
500 m²/s²
450 m²/s²
400 m²/s²
350 m²/s²
300 m²/s²
250 m²/s²
200 m²/s²
150 m²/s²
100 m²/s²
46 m/s
44 m/s
42 m/s
40 m/s
38 m/s
36 m/s
34 m/s
32 m/s
30 m/s
28 m/s
26 m/s
24 m/s
22 m/s
20 m/s
16 m/s
12 m/s
8 m/s
4 m/s
30 m/s
28 m/s
26 m/s
24 m/s
22 m/s
20 m/s
18 m/s
16 m/s
14 m/s
12 m/s
10 m/s
8 m/s
6 m/s
4 m/s
2 m/s
3.0
2.8
2.6
2.4
2.2
2.0
1.8
1.6
1.4
1.2
1.0
0.8
0.6
0.4
0.2
15
14
13
12
11
10
9
8
7
6
5
4
3
2
1
90%
80%
70%
60%
50%
40%
30%
20%
10%
42
40
38
36
34
32
30
28
26
24
22
20
18
16
14
12
90+ cm
80-90 cm
70-80 cm
60-70 cm
50-60 cm
40-50 cm
30-40 cm
20-30 cm
10-20 cm
1-10 cm
Sneeuwval
Natte sneeuw
Regen
>120 mm
115 mm
110 mm
105 mm
100 mm
95 mm
90 mm
85 mm
80 mm
75 mm
70 mm
65 mm
60 mm
55 mm
50 mm
45 mm
45 mm
40 mm
35 mm
30 mm
25 mm
20 mm
15 mm
10 mm
5 mm
0.1 mm
960 hPa
880 hPa
800 hPa
720 hPa
640 hPa
560 hPa
584 gpdm
568 gpdm
552 gpdm
536 gpdm
520 gpdm
504 gpdm
488 gpdm
Extreem zwaar Noodweer Kans op onweer
15% 15% 5% 50% 15%

Dag




Kaart






35°
30°
25°
20°
15°
10°
-5°
-10°
-15°
-20°
-25°
-30°
-35°
33> m/s
29 m/s
25 m/s
21 m/s
17 m/s
14 m/s
11 m/s
8 m/s
5 m/s
3 m/s
0 m/s
Extreem zwaar Noodweer Kans op onweer
15% 15% 5% 5